[[{"header":{"parameterUnit":"m.s-1","parameterCategory":1,"la1":30.2991,"la2":30.254,"lo1":-89.0895,"lo2":-89.0444,"dy":0.0017,"dx":0.0017,"nx":28,"ny":28,"refTime":"2024-05-14T21:00:00:Z","depth":0,"parameterNumber":2,"parameterNumberName":"U-component_of_WINDS"},"data":[0,0,0,0,0,0,0,0,0,0,0,0,0,0,0,0,0,0,0,0,0,0,0,0,0,0,0,0,0,0,0,0,0,0,0,0,0,0,0,0,0,0,0,0,0,0,0,0,0,0,0,0,0,0,0,0,0,0,2.3706,2.3707,0,2.3866,2.3868,2.387,2.3881,2.388,2.3878,2.3876,2.405,2.4056,2.4062,0,0,0,0,0,0,0,0,0,0,0,0,0,2.3417,2.3422,2.3706,2.3708,2.371,2.3866,2.3868,2.3871,2.3882,2.388,2.3877,2.3875,2.4048,2.4055,2.4063,0,0,0,0,0,0,0,0,0,0,0,0,0,2.3556,2.3423,2.3705,2.3734,2.3738,2.3866,2.3868,2.3871,2.3882,2.388,2.3877,2.3874,2.4046,2.4055,2.4064,2.4177,0,0,2.4093,2.4097,0,0,0,0,0,0,0,0,2.3548,2.3567,2.3728,2.3732,2.3737,2.3851,2.383,2.3974,2.3883,2.3828,2.3876,2.3873,2.3987,2.4001,2.4037,2.4185,2.4193,2.4094,2.41,2.4104,2.4106,0,0,0,0,0,0,0,2.3539,2.356,2.377,2.373,2.3736,2.3741,2.3758,2.3858,2.3921,2.3832,2.3834,2.3852,2.3989,2.4028,2.4041,2.4195,2.4094,2.4102,2.4108,2.4112,2.4445,2.4448,0,0,0,0,0,0,2.3522,2.3552,2.3764,2.3774,2.3634,2.3749,2.3768,2.3817,2.392,2.3932,2.3854,2.3852,2.4013,2.403,2.4048,2.4187,2.4104,2.4113,2.4118,2.4442,2.4446,2.4449,0,0,0,0,0,0,2.3516,2.3541,2.3758,2.3664,2.3691,2.3757,2.3812,2.3822,2.3861,2.3936,2.3948,2.3882,2.4012,2.4034,2.4144,2.4193,2.4117,2.4125,2.4438,2.4443,2.4447,2.4466,0,0,0,0,0,0,2.3508,2.3539,2.358,2.3664,2.3696,2.3849,2.3815,2.3827,2.3876,2.3875,2.3965,2.3978,2.4011,2.413,2.4154,2.4205,2.4133,2.4434,2.444,2.4446,2.4461,2.447,2.4478,0,0,0,0,0,2.3497,2.3581,2.3582,2.3608,2.3749,2.3852,2.3871,2.3905,2.388,2.3924,2.3972,2.3975,2.4183,2.4141,2.4168,2.4222,2.4431,2.4438,2.4445,2.4457,2.4469,2.4478,0,0,0,0,0,0,2.3505,2.3593,2.3595,2.3708,2.3772,2.3854,2.391,2.3916,2.3991,2.3987,2.4029,2.4049,2.4158,2.4201,2.4153,2.4338,2.4305,2.4318,2.4305,2.4316,2.4325,2.4313,2.4141,0,0,0,0,0,2.3518,2.3592,2.3666,2.3759,2.379,2.3844,2.389,2.3911,2.398,2.4008,2.4065,2.4134,2.4216,2.4268,2.4347,2.4467,2.4488,2.4518,2.4527,2.4534,2.4545,2.4612,2.4626,2.4472,2.4472,2.4472,0,0,2.355,2.3607,2.3651,2.3761,2.3813,2.3891,2.3867,2.395,2.4009,2.4022,2.4128,2.4172,2.4253,2.4368,2.4422,2.4408,2.4591,2.4543,2.4547,2.4555,2.4621,2.4635,2.4648,2.4477,2.4476,2.4476,0,0,2.3646,2.3696,2.3778,2.383,2.3908,2.3943,2.3963,2.4044,2.4072,2.4179,2.419,2.4263,2.4401,2.4458,2.4506,2.4623,2.4629,2.4648,2.4694,2.4759,2.4771,2.4782,2.4824,2.4839,2.4658,2.4658,2.4658,0,2.3675,2.3789,2.382,2.3903,2.3952,2.3964,2.4049,2.4099,2.42,2.4235,2.4217,2.4391,2.4446,2.4575,2.4603,2.4641,2.4667,2.4638,2.4766,2.4777,2.4788,2.4829,2.4845,2.466,2.466,2.466,2.4659,0,2.3822,2.3901,2.3959,2.4052,2.4108,2.4192,2.4238,2.4291,2.4307,2.4344,2.4454,2.4521,2.4613,2.4645,2.4663,2.4777,2.4766,2.4757,2.4725,2.4804,2.4843,2.4859,2.4662,2.4662,2.4661,2.4661,0,0,2.3927,2.4036,2.4057,2.41,2.4186,2.425,2.4335,2.4422,2.4467,2.4537,2.461,2.4727,2.4718,2.4772,2.4796,2.4853,2.4942,2.4837,2.484,2.4855,2.5074,2.508,2.5098,2.4947,2.495,2.4952,2.5067,0,2.4033,2.4181,2.4211,2.434,2.4415,2.4427,2.4502,2.4564,2.4602,2.4673,2.4717,2.4798,2.4781,2.4813,2.487,2.4919,2.4987,2.4911,2.5018,2.5021,2.4997,2.5118,2.5126,2.5231,2.5083,2.5085,2.5087,0,2.4176,2.4246,2.4381,2.4458,2.449,2.4556,2.4638,2.4705,2.4778,2.4801,2.486,2.4878,2.497,2.4933,2.5061,2.5008,2.5054,2.5085,2.509,2.5102,2.5059,2.5134,2.5266,2.5281,2.5112,2.511,2.5108,0,2.424,2.4368,2.4465,2.4501,2.4593,2.4639,2.468,2.4749,2.48,2.4873,2.4907,2.4991,2.5038,2.5104,2.5145,2.5114,2.527,2.5237,2.5295,2.5294,2.5327,2.5325,2.5468,2.5356,2.5356,2.5355,2.5355,0,2.4355,2.4437,2.4494,2.4555,2.4648,2.4684,2.4776,2.4818,2.4879,2.4949,2.4967,2.5033,2.5083,2.5157,2.519,2.5292,2.5313,2.5336,2.5344,2.5335,2.5332,2.5366,2.536,2.536,2.5359,2.5358,2.5357,0,2.4441,2.4483,2.459,2.4667,2.4689,2.4754,2.4822,2.4882,2.492,2.5009,2.5032,2.5093,2.5181,2.5228,2.5339,2.5361,2.5475,2.5479,2.5449,2.5453,2.5508,2.5502,2.5679,2.5704,2.5574,2.5576,2.5577,0,2.4512,2.4575,2.4659,2.4705,2.4746,2.4822,2.4873,2.4911,2.4964,2.5051,2.5101,2.5189,2.5262,2.5402,2.5458,2.5544,2.555,2.5606,2.5564,2.5552,2.5552,2.5547,2.5555,2.5614,2.5615,2.5616,2.5617,0,2.4633,2.465,2.4721,2.48,2.4859,2.4924,2.4988,2.5026,2.5075,2.5134,2.5222,2.5279,2.5391,2.5479,2.5568,2.5614,2.5625,2.563,2.5648,2.5639,2.5619,2.5631,2.547,2.5626,2.5625,2.5624,2.5624,2.5623,2.4714,2.4771,2.4838,2.4917,2.4969,2.5028,2.5088,2.5132,2.5205,2.5297,2.5316,2.541,2.5483,2.5603,2.5651,2.5727,2.5717,2.5743,2.5749,2.5755,2.5757,2.5606,2.5744,2.5744,2.5744,2.5744,2.5743,0,2.4837,2.488,2.4952,2.5039,2.5102,2.5103,2.5174,2.5227,2.5308,2.5373,2.5443,2.5546,2.5631,2.5693,2.5781,2.583,2.5837,2.5852,2.5849,2.586,2.5762,2.5738,2.5845,2.5845,2.5845,2.5845,2.5845,2.5844,2.4907,2.5003,2.5029,2.5151,2.5195,2.5284,2.5325,2.5381,2.5432,2.5545,2.5614,2.5653,2.5718,2.581,2.589,2.5906,2.5938,2.5953,2.597,2.5877,2.5867,2.5856,2.5834,2.5959,2.5959,2.6061,2.6062,2.6063]},{"header":{"parameterUnit":"m.s-1","parameterCategory":1,"la1":30.2991,"la2":30.254,"lo1":-89.0895,"lo2":-89.0444,"dy":0.0017,"dx":0.0017,"nx":28,"ny":28,"refTime":"2024-05-14T21:00:00:Z","depth":0,"parameterNumber":3,"parameterNumberName":"V-component_of_WINDS"},"data":[0,0,0,0,0,0,0,0,0,0,0,0,0,0,0,0,0,0,0,0,0,0,0,0,0,0,0,0,0,0,0,0,0,0,0,0,0,0,0,0,0,0,0,0,0,0,0,0,0,0,0,0,0,0,0,0,0,0,1.0443,1.0446,0,1.0727,1.073,1.0733,1.0832,1.0831,1.083,1.0829,1.1128,1.1137,1.1146,0,0,0,0,0,0,0,0,0,0,0,0,0,0.9999,1.0007,1.0443,1.0447,1.045,1.0726,1.073,1.0734,1.0832,1.0831,1.0829,1.0828,1.1125,1.1136,1.1147,0,0,0,0,0,0,0,0,0,0,0,0,0,1.0228,1.0009,1.0442,1.0532,1.0543,1.0725,1.073,1.0735,1.0832,1.0831,1.0829,1.0828,1.1122,1.1135,1.1148,1.1264,0,0,1.1189,1.1195,0,0,0,0,0,0,0,0,1.0215,1.0245,1.0516,1.0526,1.0539,1.0742,1.0683,1.0913,1.0833,1.0723,1.0829,1.0827,1.1002,1.1025,1.1082,1.1278,1.1291,1.1191,1.1199,1.1205,1.1208,0,0,0,0,0,0,0,1.0199,1.0233,1.0556,1.0519,1.0534,1.0562,1.0593,1.0727,1.0868,1.0732,1.074,1.0772,1.1008,1.1069,1.109,1.1296,1.119,1.1202,1.121,1.1216,1.1609,1.1611,0,0,0,0,0,0,1.0167,1.0219,1.0547,1.0564,1.0369,1.0572,1.0606,1.0679,1.0867,1.0894,1.0773,1.0775,1.1046,1.1074,1.1101,1.1254,1.1204,1.1217,1.1225,1.1607,1.161,1.1612,0,0,0,0,0,0,1.0157,1.0195,1.0535,1.0394,1.0439,1.0581,1.0662,1.0685,1.0746,1.0898,1.0924,1.0809,1.1046,1.1082,1.1224,1.1266,1.1223,1.1235,1.1604,1.1608,1.1611,1.1558,0,0,0,0,0,0,1.0144,1.0191,1.0233,1.0394,1.0446,1.065,1.0664,1.0692,1.0768,1.0774,1.0938,1.0964,1.1048,1.1203,1.1237,1.1283,1.1246,1.1601,1.1606,1.161,1.1557,1.156,1.1562,0,0,0,0,0,1.0127,1.0208,1.0235,1.0274,1.0502,1.0652,1.0682,1.0774,1.0771,1.0817,1.0916,1.0959,1.1255,1.1217,1.1256,1.1307,1.1599,1.1604,1.161,1.1556,1.1559,1.1562,0,0,0,0,0,0,1.0051,1.023,1.0262,1.0396,1.0508,1.0668,1.0729,1.0774,1.0891,1.0892,1.1004,1.104,1.1175,1.1255,1.121,1.1433,1.143,1.1443,1.1376,1.138,1.1382,1.1362,1.1257,0,0,0,0,0,1.0049,1.0152,1.0305,1.0409,1.0463,1.0586,1.0655,1.0716,1.0837,1.0886,1.0994,1.1113,1.1234,1.1311,1.143,1.1568,1.1609,1.1623,1.1625,1.1627,1.1638,1.1724,1.1733,1.163,1.163,1.163,0,0,1.0047,1.0158,1.0217,1.0396,1.049,1.0599,1.0625,1.0738,1.0821,1.0904,1.1045,1.1129,1.127,1.1412,1.148,1.1483,1.1676,1.1633,1.1633,1.1645,1.173,1.174,1.1748,1.1633,1.1633,1.1632,0,0,1.0101,1.0192,1.0291,1.0385,1.0525,1.0608,1.0631,1.0786,1.0844,1.0987,1.1053,1.1156,1.1359,1.1458,1.1535,1.163,1.1676,1.1666,1.1679,1.1761,1.1769,1.1777,1.1816,1.1828,1.1676,1.1676,1.1676,0,1.0082,1.0245,1.0337,1.0448,1.0527,1.0605,1.0709,1.0796,1.097,1.1025,1.1024,1.1285,1.1385,1.1554,1.1577,1.1635,1.1671,1.1648,1.176,1.1769,1.1778,1.1817,1.183,1.1674,1.1674,1.1674,1.1674,0,1.0217,1.033,1.0393,1.0557,1.0644,1.075,1.0864,1.0941,1.0995,1.1079,1.1227,1.1349,1.1497,1.1541,1.1596,1.172,1.1718,1.1737,1.1737,1.1784,1.1823,1.1838,1.1671,1.1672,1.1672,1.1673,0,0,1.023,1.0445,1.0467,1.0545,1.0707,1.0798,1.0911,1.1053,1.112,1.1237,1.1338,1.151,1.153,1.1618,1.1685,1.1756,1.183,1.1768,1.1773,1.1779,1.1982,1.1969,1.1984,1.186,1.1863,1.1866,1.1971,0,1.0308,1.0509,1.0597,1.076,1.0869,1.0946,1.1045,1.1158,1.124,1.1347,1.1439,1.1561,1.1575,1.163,1.1703,1.1805,1.1873,1.1798,1.1961,1.1966,1.1927,1.2003,1.199,1.2083,1.1986,1.1989,1.1991,0,1.0425,1.0542,1.0715,1.0869,1.0918,1.1004,1.1145,1.1244,1.1376,1.1432,1.153,1.1595,1.1722,1.171,1.189,1.1837,1.191,1.197,1.1976,1.1998,1.1983,1.2032,1.2114,1.213,1.2014,1.2013,1.2011,0,1.0423,1.0624,1.0755,1.0818,1.0999,1.106,1.1139,1.1269,1.135,1.1473,1.1529,1.1665,1.1742,1.1849,1.1951,1.1932,1.2123,1.2119,1.2178,1.2175,1.2217,1.2213,1.2316,1.2255,1.2255,1.2255,1.2255,0,1.0503,1.0607,1.0757,1.0837,1.0959,1.1061,1.118,1.1265,1.1381,1.1484,1.1558,1.1654,1.1781,1.1894,1.1975,1.2115,1.2148,1.22,1.2221,1.2196,1.219,1.2247,1.2245,1.2259,1.2258,1.2257,1.2257,0,1.0522,1.0625,1.0774,1.0933,1.0976,1.1059,1.1198,1.1283,1.1368,1.1498,1.1534,1.1671,1.1808,1.192,1.21,1.2155,1.2303,1.2325,1.2258,1.227,1.2324,1.2319,1.2471,1.2499,1.2414,1.2414,1.2415,0,1.0567,1.0649,1.0818,1.0891,1.0968,1.1085,1.1168,1.1274,1.1359,1.1518,1.1584,1.1727,1.1847,1.2064,1.2182,1.2322,1.2351,1.2395,1.2373,1.2346,1.2358,1.2354,1.2365,1.2398,1.2398,1.2398,1.2399,0,1.064,1.0688,1.0803,1.0938,1.1035,1.1147,1.1261,1.1318,1.1446,1.1538,1.1678,1.1771,1.1956,1.2099,1.2252,1.2339,1.2393,1.2404,1.2426,1.2403,1.2363,1.2391,1.2269,1.2401,1.2401,1.2401,1.2401,1.24,1.0677,1.0756,1.0887,1.1015,1.1112,1.1218,1.1306,1.1403,1.1521,1.1678,1.1734,1.188,1.2017,1.2227,1.2315,1.2434,1.2439,1.2469,1.2478,1.2485,1.2485,1.234,1.2462,1.2462,1.2462,1.2462,1.2462,0,1.0758,1.0846,1.0963,1.112,1.1222,1.1259,1.1389,1.1474,1.16,1.172,1.1837,1.2002,1.2142,1.2271,1.2419,1.249,1.2519,1.2526,1.2524,1.2545,1.2469,1.2438,1.25,1.25,1.25,1.25,1.25,1.25,1.0812,1.0948,1.1012,1.12,1.1289,1.1431,1.1502,1.1603,1.17,1.1879,1.1995,1.2077,1.2204,1.2362,1.2494,1.2529,1.2583,1.2584,1.2626,1.2554,1.2549,1.2544,1.2515,1.2593,1.2594,1.2693,1.2694,1.2694]}]]